| time (UTC) | temp F | wind direction | speed knots | gust knots | rain 1hr in | rain 24hr in | rain mn in | humidity % | barometer mb |
| 20260505153031 | 76 | 203 | 4.3 | 10.4 | 0.00 | 0.00 | 0.00 | 48 | 1015.0 |
| 20260505151527 | 74 | 210 | 4.3 | 8.7 | 0.00 | 0.00 | 0.00 | 52 | 1014.9 |
| 20260505124528 | 65 | 269 | 2.6 | 9.6 | 0.00 | 0.00 | 0.00 | 64 | 1015.2 |
| 20260505123044 | 64 | 217 | 3.5 | 11.3 | 0.00 | 0.00 | 0.00 | 64 | 1015.3 |
| 20260505121534 | 63 | 216 | 2.6 | 7.8 | 0.00 | 0.00 | 0.00 | 67 | 1015.2 |
| 20260505120037 | 61 | 257 | 3.5 | 7.8 | 0.00 | 0.00 | 0.00 | 69 | 1015.1 |
| 20260505114541 | 60 | 220 | 3.5 | 7.8 | 0.00 | 0.00 | 0.00 | 71 | 1015.1 |
| 20260505113029 | 59 | 138 | 2.6 | 8.7 | 0.00 | 0.00 | 0.00 | 72 | 1015.1 |
| 20260505111528 | 58 | 120 | 2.6 | 7.0 | 0.00 | 0.00 | 0.00 | 74 | 1014.9 |
| 20260505101530 | 57 | 265 | 1.7 | 5.2 | 0.00 | 0.00 | 0.00 | 75 | 1014.4 |
| 20260505100031 | 57 | 248 | 0.9 | 7.0 | 0.00 | 0.00 | 0.00 | 74 | 1014.1 |
| 20260505094530 | 58 | 229 | 0.9 | 6.1 | 0.00 | 0.00 | 0.00 | 74 | 1014.0 |
| 20260505093034 | 58 | 233 | 0.9 | 5.2 | 0.00 | 0.00 | 0.00 | 73 | 1013.9 |
| 20260505091540 | 58 | 98 | 0.9 | 5.2 | 0.00 | 0.00 | 0.00 | 72 | 1013.8 |
| 20260505090043 | 59 | 221 | 1.7 | 5.2 | 0.00 | 0.00 | 0.00 | 72 | 1013.7 |
| 20260505084528 | 59 | 235 | 1.7 | 8.7 | 0.00 | 0.00 | 0.00 | 72 | 1013.8 |
| 20260505083028 | 59 | 261 | 0.9 | 4.3 | 0.00 | 0.00 | 0.00 | 71 | 1013.8 |
| 20260505081538 | 60 | 259 | 0.9 | 6.1 | 0.00 | 0.00 | 0.00 | 70 | 1013.8 |
| 20260505080046 | 60 | 252 | 3.5 | 8.7 | 0.00 | 0.00 | 0.00 | 69 | 1013.5 |
| 20260505074530 | 60 | 277 | 1.7 | 5.2 | 0.00 | 0.00 | 0.00 | 69 | 1013.4 |
| 20260505073100 | 60 | 252 | 1.7 | 8.7 | 0.00 | 0.00 | 0.00 | 69 | 1013.1 |
| 20260505071529 | 61 | 211 | 1.7 | 7.0 | 0.00 | 0.00 | 0.00 | 68 | 1013.1 |
| 20260505070028 | 61 | 205 | 1.7 | 7.0 | 0.00 | 0.00 | 0.00 | 68 | 1013.0 |
| 20260505064530 | 61 | 264 | 1.7 | 7.0 | 0.00 | 0.00 | 0.00 | 67 | 1013.1 |
| 20260505063028 | 62 | 140 | 1.7 | 10.4 | 0.00 | 0.00 | 0.00 | 66 | 1013.3 |
| 20260505061529 | 62 | 319 | 2.6 | 7.0 | 0.00 | 0.00 | 0.00 | 65 | 1013.4 |
| 20260505060029 | 62 | 263 | 2.6 | 7.8 | 0.00 | 0.00 | 0.00 | 64 | 1013.3 |
| 20260505054526 | 63 | 272 | 2.6 | 7.8 | 0.00 | 0.00 | 0.00 | 63 | 1013.5 |
| 20260505053030 | 63 | 243 | 2.6 | 10.4 | 0.00 | 0.00 | 0.00 | 63 | 1013.6 |
| 20260505051528 | 63 | 214 | 3.5 | 8.7 | 0.00 | 0.00 | 0.00 | 63 | 1013.7 |
| 20260505041545 | 64 | 243 | 3.5 | 7.8 | 0.00 | 0.00 | 0.00 | 63 | 1013.7 |
| 20260505040030 | 64 | 47 | 1.7 | 7.8 | 0.00 | 0.00 | 0.00 | 63 | 1013.7 |
| 20260505034528 | 64 | 342 | 1.7 | 7.8 | 0.00 | 0.00 | 0.00 | 62 | 1013.5 |
| 20260505033026 | 65 | 269 | 2.6 | 10.4 | 0.00 | 0.00 | 0.00 | 62 | 1013.5 |
| 20260505031536 | 65 | 301 | 3.5 | 13.9 | 0.00 | 0.00 | 0.00 | 62 | 1013.5 |
| 20260505030036 | 65 | 68 | 3.5 | 8.7 | 0.00 | 0.00 | 0.00 | 62 | 1013.4 |
| 20260505024528 | 65 | 233 | 2.6 | 13.0 | 0.00 | 0.00 | 0.00 | 62 | 1013.4 |
| 20260505023036 | 65 | 229 | 2.6 | 13.0 | 0.00 | 0.00 | 0.00 | 64 | 1013.3 |
| 20260505021529 | 65 | 203 | 2.6 | 7.8 | 0.00 | 0.00 | 0.00 | 64 | 1013.4 |
| 20260505020034 | 65 | 165 | 2.6 | 9.6 | 0.00 | 0.00 | 0.00 | 64 | 1013.5 |
| 20260505014529 | 66 | 250 | 2.6 | 8.7 | 0.00 | 0.00 | 0.00 | 64 | 1013.4 |
| 20260505013028 | 66 | 224 | 2.6 | 6.1 | 0.00 | 0.00 | 0.00 | 64 | 1013.4 |
| 20260505011530 | 66 | 130 | 2.6 | 7.0 | 0.00 | 0.00 | 0.00 | 63 | 1013.2 |
| 20260505010026 | 67 | 237 | 2.6 | 7.0 | 0.00 | 0.00 | 0.00 | 62 | 1012.8 |
| 20260505004536 | 67 | 230 | 1.7 | 7.8 | 0.00 | 0.00 | 0.00 | 61 | 1012.6 |
| 20260505003029 | 68 | 156 | 1.7 | 10.4 | 0.00 | 0.00 | 0.00 | 60 | 1012.4 |
| 20260505001527 | 68 | 259 | 2.6 | 9.6 | 0.00 | 0.00 | 0.00 | 59 | 1012.3 |
| 20260505000031 | 69 | 236 | 3.5 | 10.4 | 0.00 | 0.00 | 0.00 | 58 | 1012.3 |
| 20260504234528 | 70 | 156 | 2.6 | 9.6 | 0.00 | 0.00 | 0.00 | 56 | 1012.1 |
| 20260504233032 | 71 | 169 | 3.5 | 11.3 | 0.00 | 0.00 | 0.00 | 55 | 1012.0 |
| 20260504231528 | 72 | 115 | 1.7 | 8.7 | 0.00 | 0.00 | 0.00 | 53 | 1011.7 |
| 20260504230027 | 75 | 209 | 3.5 | 10.4 | 0.00 | 0.00 | 0.00 | 48 | 1011.7 |
| 20260504224529 | 77 | 231 | 4.3 | 13.0 | 0.00 | 0.00 | 0.00 | 43 | 1011.5 |
| 20260504223027 | 78 | 183 | 3.5 | 11.3 | 0.00 | 0.00 | 0.00 | 35 | 1011.4 |
| 20260504221534 | 78 | 238 | 3.5 | 13.0 | 0.00 | 0.00 | 0.00 | 35 | 1011.4 |
| 20260504220028 | 78 | 211 | 2.6 | 12.2 | 0.00 | 0.00 | 0.00 | 35 | 1011.5 |
| 20260504214528 | 79 | 227 | 3.5 | 12.2 | 0.00 | 0.00 | 0.00 | 34 | 1011.4 |
| 20260504213052 | 78 | 266 | 3.5 | 13.0 | 0.00 | 0.00 | 0.00 | 35 | 1011.6 |
| 20260504211530 | 79 | 269 | 2.6 | 11.3 | 0.00 | 0.00 | 0.00 | 35 | 1011.6 |
| 20260504210030 | 78 | 211 | 3.5 | 8.7 | 0.00 | 0.00 | 0.00 | 35 | 1011.7 |
| 20260504204530 | 78 | 290 | 4.3 | 10.4 | 0.00 | 0.00 | 0.00 | 35 | 1011.7 |
| 20260504203033 | 78 | 180 | 3.5 | 10.4 | 0.00 | 0.00 | 0.00 | 35 | 1011.7 |
| 20260504201533 | 78 | 230 | 3.5 | 10.4 | 0.00 | 0.00 | 0.00 | 36 | 1011.7 |
| 20260504200030 | 78 | 309 | 3.5 | 12.2 | 0.00 | 0.00 | 0.00 | 36 | 1011.7 |
| 20260504194530 | 77 | 283 | 3.5 | 14.8 | 0.00 | 0.00 | 0.00 | 35 | 1011.9 |
| 20260504193034 | 78 | 266 | 2.6 | 9.6 | 0.00 | 0.00 | 0.00 | 36 | 1012.1 |
| 20260504191529 | 77 | 207 | 2.6 | 8.7 | 0.00 | 0.00 | 0.00 | 36 | 1012.3 |
| 20260504190029 | 76 | 217 | 3.5 | 11.3 | 0.00 | 0.00 | 0.00 | 38 | 1012.5 |
| 20260504184532 | 76 | 246 | 3.5 | 10.4 | 0.00 | 0.00 | 0.00 | 37 | 1012.7 |
| 20260504183030 | 75 | 360 | 5.2 | 9.6 | 0.00 | 0.00 | 0.00 | 38 | 1012.7 |
| 20260504181529 | 75 | 243 | 4.3 | 9.6 | 0.00 | 0.00 | 0.00 | 40 | 1013.1 |
| 20260504180030 | 75 | 240 | 4.3 | 11.3 | 0.00 | 0.00 | 0.00 | 38 | 1013.3 |
| 20260504174528 | 74 | 231 | 2.6 | 8.7 | 0.00 | 0.00 | 0.00 | 41 | 1013.3 |
| 20260504173037 | 74 | 235 | 2.6 | 11.3 | 0.00 | 0.00 | 0.00 | 43 | 1013.4 |
| 20260504171528 | 73 | 255 | 1.7 | 11.3 | 0.00 | 0.00 | 0.00 | 40 | 1013.6 |